Cairns, Queensland

1:48 AM AEST on August 29, 2016 (GMT +1000)
Cairns International

Weather History for YBCS - March, 2013

Change the Weather History Date:

Tuesday, March 19, 2013

  Actual Average Record
Temperature  
Mean Temperature 80 °F -  
Max Temperature 88 °F 85 °F 91 °F (2016)
Min Temperature 73 °F 72 °F 71 °F (1997)
Cooling Degree Days 16    
Growing Degree Days 30 (Base 50)    
Moisture  
Dew Point 73 °F    
Average Humidity 79    
Maximum Humidity 94    
Minimum Humidity 52    
Precipitation  
Precipitation 0.20 in 0.40 in - ()
Sea Level Pressure  
Sea Level Pressure 29.84 in    
Wind  
Wind Speed 4 mph ()    
Max Wind Speed 12 mph    
Max Gust Speed -    
Visibility 7.3 miles    
Events Rain    
Averages and records for this station are not official NWS values.
T = Trace of Precipitation, MM = Missing Value Source: Averaged Metar Reports

Daily Weather History Graph

Daily Weather History Graph

Search for Another Location

Airport or City:

Trip Planner

Search our weather history database for the weather conditions in past years. The results will help you decide how hot, cold, wet, or windy it might be!

Date:

Astronomy

Mar. 19, 2013 Rise Set
Actual Time 6:20 AM AEST 6:28 PM AEST
Civil Twilight 5:59 AM AEST 6:50 PM AEST
Nautical Twilight 5:33 AM AEST 7:15 PM AEST
Astronomical Twilight 5:08 AM AEST 7:40 PM AEST
Moon 12:20 PM AEST (3/19) 11:50 PM AEST (3/19)
Length of Visible Light 12h 51m
Length of Day
12h 08m
Waxing Crescent, 44% of the Moon is Illuminated
Mar 19
Waxing Crescent
Mar 20
First Quarter
Mar 27
Full
Apr 3
Last Quarter
Apr 10
New

Hourly Weather History & Observations

Time (AEST) Temp. Heat Index Dew Point Humidity Pressure Visibility Wind Dir Wind Speed Gust Speed Precip Events Conditions
12:00 AM 75 °F - 71 °F 83% 29.86 in - NW 1.2 mph - -  
12:00 AM 75.2 °F - 71.6 °F 89% 29.86 in - NW 1.2 mph - N/A   Clear
12:30 AM 75.2 °F - 69.8 °F 83% 29.83 in - WSW 3.5 mph - N/A   Clear
1:00 AM 75 °F - 71 °F 84% 29.85 in - Calm Calm - -  
1:00 AM 75.2 °F - 71.6 °F 89% 29.83 in 6.2 mi Calm Calm - N/A   Scattered Clouds
1:30 AM 75.2 °F - 71.6 °F 89% 29.83 in 6.2 mi North 2.3 mph - N/A   Scattered Clouds
2:00 AM 73.4 °F - 71.6 °F 94% 29.83 in 6.2 mi North 4.6 mph - N/A   Scattered Clouds
2:30 AM 73.4 °F - 71.6 °F 94% 29.80 in 6.2 mi WSW 1.2 mph - N/A   Scattered Clouds
3:00 AM 76 °F - 70 °F 76% 29.82 in - SSE 8.1 mph - -  
3:00 AM 75.2 °F - 69.8 °F 83% 29.80 in 6.2 mi SSE 8.1 mph - N/A   Scattered Clouds
3:30 AM 77.0 °F - 69.8 °F 78% 29.80 in 6.2 mi SSW 4.6 mph - N/A   Scattered Clouds
4:00 AM 75 °F - 71 °F 82% 29.83 in - WNW 3.5 mph - -  
4:00 AM 75.2 °F - 69.8 °F 83% 29.80 in 6.2 mi WNW 3.5 mph - N/A   Scattered Clouds
4:30 AM 75.2 °F - 71.6 °F 89% 29.80 in 6.2 mi West 4.6 mph - N/A   Scattered Clouds
5:00 AM 77.0 °F - 69.8 °F 78% 29.83 in 6.2 mi East 1.2 mph - N/A   Scattered Clouds
5:30 AM 75.2 °F - 69.8 °F 83% 29.83 in 6.2 mi SSW 2.3 mph - N/A   Scattered Clouds
6:00 AM 76 °F - 71 °F 78% 29.84 in 12 mi SSE 6.9 mph - -   Mostly Cloudy
6:00 AM 77.0 °F - 69.8 °F 78% 29.83 in 6.2 mi SSE 6.9 mph - N/A   Mostly Cloudy
6:30 AM 77.0 °F - 69.8 °F 78% 29.86 in 6.2 mi South 5.8 mph - N/A   Mostly Cloudy
7:00 AM 77 °F - 71 °F 75% 29.87 in - SE 3.5 mph - -  
7:00 AM 77.0 °F - 69.8 °F 78% 29.86 in 6.2 mi SE 3.5 mph - N/A   Mostly Cloudy
7:30 AM 78.8 °F - 71.6 °F 78% 29.86 in 6.2 mi South 6.9 mph - N/A   Mostly Cloudy
8:00 AM 80.6 °F 84.6 °F 71.6 °F 74% 29.86 in 6.2 mi SSE 8.1 mph - N/A   Mostly Cloudy
8:30 AM 82.4 °F 87.2 °F 71.6 °F 70% 29.89 in 6.2 mi SE 5.8 mph - N/A   Mostly Cloudy
9:00 AM 83 °F - 72 °F 62% 29.90 in 19 mi SSE 6.9 mph - -   Partly Cloudy
9:00 AM 82.4 °F 87.2 °F 71.6 °F 70% 29.89 in 6.2 mi SSE 6.9 mph - N/A   Partly Cloudy
9:30 AM 84.2 °F 90.9 °F 73.4 °F 70% 29.89 in 6.2 mi South 8.1 mph - N/A   Partly Cloudy
10:00 AM 85 °F - 73 °F 59% 29.91 in - SSE 6.9 mph - -  
10:00 AM 86.0 °F 93.4 °F 73.4 °F 66% 29.89 in 6.2 mi SSE 6.9 mph - N/A   Scattered Clouds
11:00 AM 86.0 °F 91.8 °F 71.6 °F 62% 29.89 in 6.2 mi SSE 9.2 mph - N/A   Mostly Cloudy
11:30 AM 86.0 °F 91.8 °F 71.6 °F 62% 29.86 in 6.2 mi ESE 11.5 mph - N/A   Mostly Cloudy
12:00 PM 87 °F - 73 °F 54% 29.87 in 19 mi SE 9.2 mph - -   Partly Cloudy
12:00 PM 87.8 °F 95.6 °F 73.4 °F 62% 29.86 in 6.2 mi SE 9.2 mph - N/A   Scattered Clouds
12:30 PM 87.8 °F 95.6 °F 73.4 °F 62% 29.83 in 6.2 mi SE 9.2 mph - N/A   Scattered Clouds
1:00 PM 88 °F - 73 °F 52% 29.84 in - East 8.1 mph - -  
1:00 PM 87.8 °F 95.6 °F 73.4 °F 62% 29.83 in 6.2 mi East 8.1 mph - N/A   Scattered Clouds
1:30 PM 87.8 °F 97.6 °F 75.2 °F 66% 29.80 in 6.2 mi ENE 9.2 mph - N/A   Scattered Clouds
2:00 PM 87.8 °F 95.6 °F 73.4 °F 62% 29.80 in 6.2 mi ENE 10.4 mph - N/A   Scattered Clouds
2:30 PM 87.8 °F 97.6 °F 75.2 °F 66% 29.80 in 6.2 mi NE 10.4 mph - N/A   Scattered Clouds
3:00 PM 86 °F - 75 °F 62% 29.80 in 19 mi NE 9.2 mph - -   Partly Cloudy
3:00 PM 86.0 °F 95.1 °F 75.2 °F 70% 29.80 in 6.2 mi NE 9.2 mph - N/A   Mostly Cloudy
3:30 PM 86.0 °F 95.1 °F 75.2 °F 70% 29.80 in 6.2 mi NE 8.1 mph - N/A   Mostly Cloudy
3:45 PM 84.2 °F 90.9 °F 73.4 °F 70% 29.80 in 3.7 mi NE 8.1 mph - N/A Rain Light Rain Showers
4:00 PM 80 °F - 74 °F 78% 29.81 in - WSW 5.8 mph - -  
4:00 PM 78.8 °F - 75.2 °F 89% 29.80 in 3.7 mi WSW 5.8 mph - N/A Rain Light Rain Showers
4:17 PM 80.6 °F 87.1 °F 77.0 °F 89% 29.80 in 6.2 mi West 6.9 mph - N/A   Mostly Cloudy
4:30 PM 80.6 °F 87.1 °F 77.0 °F 89% 29.80 in 6.2 mi West 4.6 mph - N/A   Mostly Cloudy
5:00 PM 82.4 °F 90.9 °F 77.0 °F 84% 29.80 in 6.2 mi West 3.5 mph - N/A   Mostly Cloudy
5:30 PM 80.6 °F 86.2 °F 75.2 °F 84% 29.80 in 6.2 mi West 6.9 mph - N/A   Mostly Cloudy
6:00 PM 81 °F - 77 °F 84% 29.82 in 16 mi WNW 5.8 mph - -   Partly Cloudy
6:00 PM 80.6 °F 87.1 °F 77.0 °F 89% 29.80 in 6.2 mi WNW 5.8 mph - N/A   Mostly Cloudy
6:30 PM 80.6 °F 87.1 °F 77.0 °F 89% 29.83 in 6.2 mi West 5.8 mph - N/A   Mostly Cloudy
7:00 PM 80 °F - 76 °F 86% 29.85 in - WNW 4.6 mph - -  
7:00 PM 80.6 °F 87.1 °F 77.0 °F 89% 29.83 in 6.2 mi WNW 4.6 mph - N/A   Mostly Cloudy
7:30 PM 80.6 °F 87.1 °F 77.0 °F 89% 29.86 in 6.2 mi West 5.8 mph - N/A   Mostly Cloudy
8:00 PM 80.6 °F 86.2 °F 75.2 °F 84% 29.86 in 6.2 mi West 4.6 mph - N/A   Mostly Cloudy
8:30 PM 78.8 °F - 77.0 °F 94% 29.86 in 6.2 mi WSW 1.2 mph - N/A   Mostly Cloudy
9:00 PM 79 °F - 76 °F 90% 29.88 in 16 mi Calm Calm - -   Partly Cloudy
9:00 PM 78.8 °F - 77.0 °F 94% 29.86 in 6.2 mi Calm Calm - N/A   Mostly Cloudy
9:30 PM 78.8 °F - 77.0 °F 94% 29.89 in 6.2 mi Calm Calm - N/A   Mostly Cloudy
10:00 PM 80 °F - 75 °F 80% 29.90 in - South 6.9 mph - -  
10:00 PM 78.8 °F - 75.2 °F 89% 29.89 in 6.2 mi South 6.9 mph - N/A   Mostly Cloudy
10:30 PM 78.8 °F - 75.2 °F 89% 29.89 in 6.2 mi SW 1.2 mph - N/A   Mostly Cloudy
11:00 PM 78.8 °F - 75.2 °F 89% 29.89 in 6.2 mi NNW 1.2 mph - N/A   Mostly Cloudy
11:30 PM 78.8 °F - 75.2 °F 89% 29.89 in 6.2 mi South 4.6 mph - N/A   Scattered Clouds